SCP
0 -0 0 0 0 0 0 0 -0 -0 0 0 0 0 0 0 0 0 0 0 0 0 0 0 0 0 0 0 0 0 0 0 0 0 0 0 0 0 0 0 0 0 0 0
0 0 0 0 0 0 0 -0 -0 0 0 -0 -0 0 0 0 0 0 0 0 0 0 0 0 0 0 0 0 0 0 0 0 0 0 0 0 0 0 0 0 0 0 0 0
0 0 0 0 0 -0 -0 -0 -0 0 0 0 -0 0 0 0 0 0 0 0 0 0 0 0 0 0 0 0 0 0 0 0 0 0 0 0 0 0 0 0 0 0 0 0
0 0 0 0 0 0 -0 -0 -0 -0 -0 0 0 0 0 0 0 0 0 0 0 0 0 0 0 0 0 0 0 0 0 0 0 0 0 0 0 0 0 0 0 0 0 0
0 0 -0 0 -0 -0 -0 0 0 0 0 0 0 0 0 0 0 0 0 0 0 0 0 0 0 0 0 0 0 0 0 0 0 0 0 0 0 0 0 0 0 0 0 0
-0 0 0 0 0 0 0 0 0 0 0 0 0 0 0 0 0 0 0 0 0 0 0 0 0 0 0 0 0 0 0 0 0 0 0 0 0 0 0 0 0 0 0 0
-0 0 0 0 0 0 0 0 -0 -0 0 0 0 0 0 0 0 0 0 0 0 0 0 0 0 0 0 0 0 0 0 0 0 0 0 0 0 0 0 0 0 0 0 0
-0 -0 0 0 0 0 0 0 0 0 0 0 0 0 0 0 0 0 0 0 0 0 0 0 0 0 0 0 0 0 0 0 0 0 0 0 0 0 0 0 0 0 0 0
-0 0 0 0 0 0 0 0 0 0 0 0 0 0 0 0 0 0 0 0 0 0 0 0 0 0 0 0 0 0 0 0 0 0 0 0 0 0 0 0 0 0 0 0
0 0 0 0 0 0 0 0 0 0 0 0 0 0 0 0 0 0 0 0 0 0 0 0 0 0 0 0 0 0 0 0 0 0 0 0 0 0 0 0 0 0 0 0
0 0 0 0 0 0 0 0 0 0 0 0 0 0 0 0 0 0 0 0 0 0 0 0 0 0 0 0 0 0 0 0 0 0 0 0 0 0 0 0 0 0 0 0
0 0 0 0 0 0 0 0 0 0 0 0 0 0 0 0 0 0 0 0 0 0 0 0 0 0 0 0 0 0 0 0 0 0 0 0 0 0 0 0 0 0 0 0
0 0 0 0 0 0 0 0 0 0 0 0 0 0 0 0 0 0 0 0 0 0 0 0 0 0 0 0 0 0 0 0 0 0 0 0 0 0 0 0 0 0 0 0
0 0 0 0 0 0 0 0 0 0 0 0 0 0 0 0 0 0 0 0 0 0 0 0 0 0 0 0 0 0 0 0 0 0 0 0 0 0 0 0 0 0 0 0
0 0 0 0 0 0 0 0 0 0 0 0 0 0 0 0 0 0 0 0 0 0 0 0 0 0 0 0 0 0 0 0 0 0 0 0 0 0 0 0 0 0 0 0
0 0 0 0 0 0 0 0 0 0 0 0 0 0 0 0 0 0 0 0 0 0 0 0 0 0 0 0 0 0 0 0 0 0 0 0 0 0 0 0 0 0 0 0
0 0 0 0 0 0 0 0 0 0 0 0 0 0 0 0 0 0 0 0 0 0 0 0 0 0 0 0 0 0 0 0 0 0 0 0 0 0 0 0 0 0 0 0
0 0 0 0 0 0 0 0 0 0 0 0 0 0 0 0 0 0 0 0 0 0 0 0 0 0 0 0 0 0 0 0 0 0 0 0 0 0 0 0 0 0 0 0
0 0 0 0 0 0 0 0 0 0 0 0 0 0 0 0 0 0 0 0 0 0 0 0 0 0 0 0 0 0 0 0 0 0 0 0 0 0 0 0 0 0 0 0
0 0 0 0 0 0 0 0 0 0 0 0 0 0 0 0 0 0 0 0 0 0 0 0 0 0 0 0 0 0 0 0 0 0 0 0 0 0 0 0 0 0 0 0
0 0 0 0 0 0 0 0 0 0 0 0 0 0 0 0 0 0 0 0 0 0 0 0 0 0 0 0 0 0 0 0 0 0 0 0 0 0 0 0 0 0 0 0
0 0 0 0 0 0 0 0 0 0 0 0 0 0 0 0 0 0 0 0 0 0 0 0 0 0 0 0 0 0 0 0 0 0 0 0 0 0 0 0 0 0 0 0
0 0 0 0 0 0 0 0 0 0 0 0 0 0 0 0 0 0 0 0 0 0 0 0 0 0 0 0 0 0 0 0 0 0 0 0 0 0 0 0 0 0 0 0
0 0 0 0 0 0 0 0 0 0 0 0 0 0 0 0 0 0 0 0 0 0 0 0 0 0 0 0 0 0 0 0 0 0 0 0 0 0 0 0 0 0 0 0
0 0 0 0 0 0 0 0 0 0 0 0 0 0 0 0 0 0 0 0 0 0 0 0 0 0 0 0 0 0 0 0 0 0 0 0 0 0 0 0 0 0 0 0
0 0 0 0 0 0 0 0 0 0 0 0 0 0 0 0 0 0 0 0 0 0 0 0 0 0 0 0 0 0 0 0 0 0 0 0 0 0 0 0 0 0 0 0
Wind_Speed_500mb
19 18 5 4 3 4 5 5 10 10 2 14 7 26 37 43 13 22 31 36 38 38 31 42 38 34 30 30 33 34 35 35 39 46 52 53 52 54 55 57 56 60 65 70
15 6 6 7 4 5 8 6 10 15 4 5 16 39 16 5 4 7 10 14 20 19 18 29 34 31 31 29 33 33 33 36 43 49 52 52 55 59 61 63 65 68 71 71
12 2 6 3 7 8 2 1 5 10 18 3 17 14 8 2 4 7 11 8 6 9 14 21 24 27 30 30 31 32 32 37 44 50 50 52 59 64 67 69 71 70 70 70
9 5 4 1 7 6 8 2 4 9 11 5 11 8 10 5 2 7 13 12 8 3 6 12 21 27 26 27 26 26 28 38 46 46 50 58 62 64 67 69 70 71 70 70
3 11 11 11 3 2 8 4 8 3 5 6 9 6 15 5 6 4 3 9 9 5 3 10 15 17 18 15 18 26 35 40 42 46 53 56 58 61 65 68 71 73 73 70
5 3 5 3 6 5 6 3 3 6 4 6 4 6 13 7 6 6 6 5 5 3 4 9 9 10 13 17 25 29 34 36 43 48 50 56 59 62 66 68 71 73 71 69
11 4 5 7 7 2 11 10 8 12 9 9 2 3 21 9 7 8 20 13 7 1 7 9 11 13 16 20 24 30 35 40 43 48 53 54 55 61 63 67 69 70 71 72
7 13 9 14 7 3 8 7 8 8 5 10 3 12 12 2 0 4 15 16 10 7 12 13 13 18 23 26 29 32 34 40 46 51 52 53 57 59 62 64 64 66 67 65
10 9 3 9 6 4 6 7 3 11 2 7 8 16 18 5 5 12 20 21 14 16 17 18 22 25 25 24 28 32 37 43 46 47 50 55 57 60 62 62 63 65 61 56
2 9 1 3 1 6 5 2 8 7 8 11 12 13 12 13 18 14 19 32 21 24 24 23 24 21 20 24 29 33 39 42 43 47 53 57 61 62 61 63 63 61 54 52
7 7 8 2 7 11 5 3 6 5 7 8 7 15 15 17 14 23 33 32 23 27 23 22 20 21 22 26 30 35 37 38 44 50 56 59 61 60 61 62 62 57 51 51
6 7 8 17 2 4 2 8 8 8 12 7 4 20 6 9 10 29 40 27 26 29 23 21 20 21 24 27 32 35 35 40 46 53 57 59 60 60 61 62 60 56 51 50
2 5 10 18 2 4 6 9 7 5 4 14 7 16 5 9 12 35 39 34 32 29 22 21 19 23 27 28 32 32 36 43 50 55 59 60 61 63 65 64 61 56 51 52
3 3 14 13 16 3 10 10 9 9 5 7 25 52 49 40 15 35 49 46 40 28 23 21 20 22 26 28 29 31 37 45 53 57 59 61 62 64 66 67 63 57 51 53
8 9 5 14 26 10 30 38 16 26 25 18 56 21 51 45 16 36 39 37 26 25 23 21 22 20 23 24 28 34 40 48 54 57 58 60 63 64 65 65 62 57 53 53
2 6 4 12 14 10 19 37 26 39 37 27 53 64 65 89 63 44 32 23 26 26 25 22 16 20 22 24 30 37 45 51 55 57 57 59 61 64 63 62 58 54 54 56
8 7 5 13 6 18 20 24 23 13 13 12 17 44 5 8 11 24 26 28 27 24 16 17 9 19 20 25 33 41 47 52 53 54 56 58 61 63 62 60 56 53 55 57
10 8 4 9 11 1 15 11 14 27 31 35 36 40 47 32 18 25 25 23 24 14 18 8 10 16 19 27 36 42 46 48 51 54 56 58 62 63 63 60 57 53 53 54
2 7 5 5 6 21 22 9 13 13 23 27 42 42 48 16 10 18 22 20 13 14 9 4 12 13 21 29 36 41 43 47 52 56 60 63 65 65 63 61 59 56 55 55
3 4 0 3 7 14 9 4 10 8 28 22 31 26 11 9 7 14 19 15 14 10 7 9 9 13 21 27 34 40 44 49 54 58 62 63 64 63 63 61 62 60 54 51
8 5 15 17 12 23 30 24 12 2 35 17 17 14 20 10 18 20 18 18 13 10 7 9 7 13 20 28 32 36 42 48 53 57 61 63 61 61 61 61 59 57 53 51
21 20 12 6 10 25 40 17 18 35 23 22 18 24 24 30 32 24 23 20 18 15 14 11 9 11 16 23 29 36 42 47 52 58 61 61 62 61 61 61 58 56 54 54
6 20 12 27 22 19 48 55 78 79 62 62 54 47 33 31 33 29 29 26 21 19 19 13 8 8 14 20 28 35 43 48 53 58 61 62 61 62 59 61 60 60 55 53
12 23 11 7 40 64 80 83 86 87 82 80 64 47 36 28 30 32 32 33 27 27 23 15 7 4 11 20 29 36 43 49 54 60 65 66 65 65 61 58 60 56 55 54
18 24 24 46 64 91 85 99 75 68 56 40 34 27 26 29 29 34 38 34 31 32 26 17 7 2 10 19 26 33 40 48 54 60 66 69 66 65 65 58 59 53 46 44
31 37 21 39 77 57 61 55 49 50 54 52 34 28 29 29 29 36 38 35 40 36 27 17 9 4 10 16 24 32 42 50 57 62 67 69 66 65 64 63 58 51 46 40
Wind_Direction_500mb
30 67 83 264 18 214 226 244 252 260 39 330 240 286 296 314 293 277 272 271 266 250 259 246 249 259 277 293 297 291 290 296 308 312 313 312 320 321 323 323 324 323 321 321
31 76 242 285 329 266 222 268 297 287 314 6 335 302 283 307 35 22 13 342 239 236 254 236 243 259 276 284 292 297 300 308 314 315 318 321 323 322 322 322 322 323 322 321
106 177 308 248 40 24 38 291 336 261 327 232 319 293 315 318 80 63 60 74 77 233 237 232 249 266 271 280 293 301 309 310 310 317 318 316 318 320 323 325 325 324 322 321
102 332 324 17 77 28 335 144 260 294 17 283 17 276 306 324 106 49 52 76 90 119 216 252 267 266 272 284 298 303 300 303 311 315 317 321 323 324 326 325 323 322 323 323
337 13 11 43 341 140 247 299 303 49 85 13 336 77 269 345 257 178 76 97 91 118 205 263 268 268 276 279 280 285 296 303 307 310 316 320 320 322 320 322 323 325 326 329
73 48 58 283 288 224 320 118 55 62 98 19 284 82 283 246 235 204 184 135 87 77 334 301 278 265 261 264 275 287 294 302 307 312 316 317 320 323 324 325 327 328 330 331
348 8 342 15 322 201 29 43 345 356 9 233 282 19 248 251 260 230 185 182 158 133 296 278 262 261 272 281 291 294 301 305 309 314 317 320 326 325 326 329 329 330 331 330
63 329 11 355 52 306 22 108 139 270 280 282 16 233 256 210 275 178 177 179 174 279 279 268 266 276 284 291 295 301 304 308 317 319 323 325 324 327 329 330 330 330 329 330
18 284 65 35 360 48 321 46 149 96 59 32 275 286 289 184 248 192 184 193 227 277 276 268 274 280 285 291 300 307 312 315 317 321 323 326 328 332 333 332 330 330 329 331
131 331 346 285 25 53 92 139 27 16 338 302 284 279 243 258 234 218 208 219 247 282 269 271 274 275 284 295 304 310 312 317 323 326 330 332 335 333 332 330 329 329 328 331
136 113 278 91 185 183 51 17 44 135 149 209 288 267 219 231 214 203 215 221 261 288 272 265 264 276 288 299 304 308 315 323 327 330 333 334 333 332 330 328 329 328 327 329
209 161 252 237 106 354 333 212 164 132 267 235 162 266 245 242 247 203 209 247 282 294 266 261 267 279 291 298 306 315 323 324 329 333 335 332 331 330 329 329 330 328 324 325
57 337 347 340 52 65 209 215 161 97 59 225 154 265 320 295 261 221 239 262 280 275 266 266 265 289 291 302 311 318 324 327 332 335 333 332 331 331 330 330 329 325 320 321
91 197 184 214 231 130 251 223 201 147 156 210 233 270 276 277 251 256 259 271 271 254 253 254 272 291 290 305 314 322 325 332 333 333 332 331 330 330 329 328 327 324 320 321
131 222 229 252 267 221 261 255 196 206 220 213 270 250 273 276 270 282 287 286 246 246 254 257 273 285 296 309 315 324 329 332 332 331 331 331 329 328 328 327 327 323 320 321
46 283 43 286 276 275 272 261 226 235 251 251 261 277 267 274 277 269 263 254 252 253 264 256 283 288 299 310 320 327 332 331 331 331 331 330 328 330 330 328 327 325 322 323
150 142 69 264 345 324 286 253 188 205 215 179 208 247 336 274 228 254 269 259 258 272 241 260 290 286 298 315 324 331 331 330 331 331 333 332 332 332 332 331 330 328 325 326
140 109 140 270 349 346 239 233 202 207 250 209 259 269 271 282 265 275 275 273 279 250 235 264 280 280 305 321 328 330 330 333 334 335 335 336 335 335 335 334 333 331 329 331
89 124 278 257 206 295 281 212 184 183 274 231 235 259 270 274 332 274 273 275 250 224 218 240 258 292 317 326 329 332 335 339 340 340 341 341 339 338 336 337 336 337 338 339
69 61 95 17 256 279 227 174 149 153 285 227 207 239 193 121 279 300 251 233 205 200 178 241 270 306 318 326 335 340 345 346 346 346 344 343 342 340 340 339 340 344 341 340
158 172 219 242 259 275 265 161 129 92 297 196 218 210 180 198 245 269 218 203 193 171 196 227 268 307 325 337 343 348 351 352 351 348 347 348 347 345 343 344 344 344 346 348
170 169 202 192 217 279 161 137 190 271 296 286 272 268 241 261 253 250 215 198 184 171 197 206 254 303 333 346 352 355 354 353 352 351 351 350 351 352 349 346 347 349 352 350
227 205 195 195 215 240 205 251 273 281 285 292 289 297 284 262 238 228 205 192 183 177 200 210 245 310 344 352 357 358 355 355 355 354 354 353 354 356 356 349 352 352 353 355
245 224 231 308 242 256 267 272 278 286 283 291 289 294 284 240 246 214 199 189 176 191 196 203 216 325 356 1 2 1 358 357 357 357 357 357 357 356 359 357 357 356 355 356
199 158 224 250 264 276 272 268 281 291 287 294 288 273 260 241 230 206 194 187 181 191 191 191 183 56 18 14 8 4 3 1 1 0 360 360 359 357 357 7 3 0 357 348
192 228 225 250 259 267 288 303 302 295 298 296 270 267 242 244 219 199 191 186 187 185 184 178 164 113 43 25 15 9 6 3 2 1 2 1 358 359 0 2 7 14 9 359
Wind_Speed_850mb
19 18 5 4 3 4 5 5 10 10 2 14 7 26 37 43 13 22 31 36 38 38 31 42 38 34 30 30 33 34 35 35 39 46 52 53 52 54 55 57 56 60 65 70
15 6 6 7 4 5 8 6 10 15 4 5 16 39 16 5 4 7 10 14 20 19 18 29 34 31 31 29 33 33 33 36 43 49 52 52 55 59 61 63 65 68 71 71
12 2 6 3 7 8 2 1 5 10 18 3 17 14 8 2 4 7 11 8 6 9 14 21 24 27 30 30 31 32 32 37 44 50 50 52 59 64 67 69 71 70 70 70
9 5 4 1 7 6 8 2 4 9 11 5 11 8 10 5 2 7 13 12 8 3 6 12 21 27 26 27 26 26 28 38 46 46 50 58 62 64 67 69 70 71 70 70
3 11 11 11 3 2 8 4 8 3 5 6 9 6 15 5 6 4 3 9 9 5 3 10 15 17 18 15 18 26 35 40 42 46 53 56 58 61 65 68 71 73 73 70
5 3 5 3 6 5 6 3 3 6 4 6 4 6 13 7 6 6 6 5 5 3 4 9 9 10 13 17 25 29 34 36 43 48 50 56 59 62 66 68 71 73 71 69
11 4 5 7 7 2 11 10 8 12 9 9 2 3 21 9 7 8 20 13 7 1 7 9 11 13 16 20 24 30 35 40 43 48 53 54 55 61 63 67 69 70 71 72
7 13 9 14 7 3 8 7 8 8 5 10 3 12 12 2 0 4 15 16 10 7 12 13 13 18 23 26 29 32 34 40 46 51 52 53 57 59 62 64 64 66 67 65
10 9 3 9 6 4 6 7 3 11 2 7 8 16 18 5 5 12 20 21 14 16 17 18 22 25 25 24 28 32 37 43 46 47 50 55 57 60 62 62 63 65 61 56
2 9 1 3 1 6 5 2 8 7 8 11 12 13 12 13 18 14 19 32 21 24 24 23 24 21 20 24 29 33 39 42 43 47 53 57 61 62 61 63 63 61 54 52
7 7 8 2 7 11 5 3 6 5 7 8 7 15 15 17 14 23 33 32 23 27 23 22 20 21 22 26 30 35 37 38 44 50 56 59 61 60 61 62 62 57 51 51
6 7 8 17 2 4 2 8 8 8 12 7 4 20 6 9 10 29 40 27 26 29 23 21 20 21 24 27 32 35 35 40 46 53 57 59 60 60 61 62 60 56 51 50
2 5 10 18 2 4 6 9 7 5 4 14 7 16 5 9 12 35 39 34 32 29 22 21 19 23 27 28 32 32 36 43 50 55 59 60 61 63 65 64 61 56 51 52
3 3 14 13 16 3 10 10 9 9 5 7 25 52 49 40 15 35 49 46 40 28 23 21 20 22 26 28 29 31 37 45 53 57 59 61 62 64 66 67 63 57 51 53
8 9 5 14 26 10 30 38 16 26 25 18 56 21 51 45 16 36 39 37 26 25 23 21 22 20 23 24 28 34 40 48 54 57 58 60 63 64 65 65 62 57 53 53
2 6 4 12 14 10 19 37 26 39 37 27 53 64 65 89 63 44 32 23 26 26 25 22 16 20 22 24 30 37 45 51 55 57 57 59 61 64 63 62 58 54 54 56
8 7 5 13 6 18 20 24 23 13 13 12 17 44 5 8 11 24 26 28 27 24 16 17 9 19 20 25 33 41 47 52 53 54 56 58 61 63 62 60 56 53 55 57
10 8 4 9 11 1 15 11 14 27 31 35 36 40 47 32 18 25 25 23 24 14 18 8 10 16 19 27 36 42 46 48 51 54 56 58 62 63 63 60 57 53 53 54
2 7 5 5 6 21 22 9 13 13 23 27 42 42 48 16 10 18 22 20 13 14 9 4 12 13 21 29 36 41 43 47 52 56 60 63 65 65 63 61 59 56 55 55
3 4 0 3 7 14 9 4 10 8 28 22 31 26 11 9 7 14 19 15 14 10 7 9 9 13 21 27 34 40 44 49 54 58 62 63 64 63 63 61 62 60 54 51
8 5 15 17 12 23 30 24 12 2 35 17 17 14 20 10 18 20 18 18 13 10 7 9 7 13 20 28 32 36 42 48 53 57 61 63 61 61 61 61 59 57 53 51
21 20 12 6 10 25 40 17 18 35 23 22 18 24 24 30 32 24 23 20 18 15 14 11 9 11 16 23 29 36 42 47 52 58 61 61 62 61 61 61 58 56 54 54
6 20 12 27 22 19 48 55 78 79 62 62 54 47 33 31 33 29 29 26 21 19 19 13 8 8 14 20 28 35 43 48 53 58 61 62 61 62 59 61 60 60 55 53
12 23 11 7 40 64 80 83 86 87 82 80 64 47 36 28 30 32 32 33 27 27 23 15 7 4 11 20 29 36 43 49 54 60 65 66 65 65 61 58 60 56 55 54
18 24 24 46 64 91 85 99 75 68 56 40 34 27 26 29 29 34 38 34 31 32 26 17 7 2 10 19 26 33 40 48 54 60 66 69 66 65 65 58 59 53 46 44
31 37 21 39 77 57 61 55 49 50 54 52 34 28 29 29 29 36 38 35 40 36 27 17 9 4 10 16 24 32 42 50 57 62 67 69 66 65 64 63 58 51 46 40
Wind_Direction_850mb
30 67 83 264 18 214 226 244 252 260 39 330 240 286 296 314 293 277 272 271 266 250 259 246 249 259 277 293 297 291 290 296 308 312 313 312 320 321 323 323 324 323 321 321
31 76 242 285 329 266 222 268 297 287 314 6 335 302 283 307 35 22 13 342 239 236 254 236 243 259 276 284 292 297 300 308 314 315 318 321 323 322 322 322 322 323 322 321
106 177 308 248 40 24 38 291 336 261 327 232 319 293 315 318 80 63 60 74 77 233 237 232 249 266 271 280 293 301 309 310 310 317 318 316 318 320 323 325 325 324 322 321
102 332 324 17 77 28 335 144 260 294 17 283 17 276 306 324 106 49 52 76 90 119 216 252 267 266 272 284 298 303 300 303 311 315 317 321 323 324 326 325 323 322 323 323
337 13 11 43 341 140 247 299 303 49 85 13 336 77 269 345 257 178 76 97 91 118 205 263 268 268 276 279 280 285 296 303 307 310 316 320 320 322 320 322 323 325 326 329
73 48 58 283 288 224 320 118 55 62 98 19 284 82 283 246 235 204 184 135 87 77 334 301 278 265 261 264 275 287 294 302 307 312 316 317 320 323 324 325 327 328 330 331
348 8 342 15 322 201 29 43 345 356 9 233 282 19 248 251 260 230 185 182 158 133 296 278 262 261 272 281 291 294 301 305 309 314 317 320 326 325 326 329 329 330 331 330
63 329 11 355 52 306 22 108 139 270 280 282 16 233 256 210 275 178 177 179 174 279 279 268 266 276 284 291 295 301 304 308 317 319 323 325 324 327 329 330 330 330 329 330
18 284 65 35 360 48 321 46 149 96 59 32 275 286 289 184 248 192 184 193 227 277 276 268 274 280 285 291 300 307 312 315 317 321 323 326 328 332 333 332 330 330 329 331
131 331 346 285 25 53 92 139 27 16 338 302 284 279 243 258 234 218 208 219 247 282 269 271 274 275 284 295 304 310 312 317 323 326 330 332 335 333 332 330 329 329 328 331
136 113 278 91 185 183 51 17 44 135 149 209 288 267 219 231 214 203 215 221 261 288 272 265 264 276 288 299 304 308 315 323 327 330 333 334 333 332 330 328 329 328 327 329
209 161 252 237 106 354 333 212 164 132 267 235 162 266 245 242 247 203 209 247 282 294 266 261 267 279 291 298 306 315 323 324 329 333 335 332 331 330 329 329 330 328 324 325
57 337 347 340 52 65 209 215 161 97 59 225 154 265 320 295 261 221 239 262 280 275 266 266 265 289 291 302 311 318 324 327 332 335 333 332 331 331 330 330 329 325 320 321
91 197 184 214 231 130 251 223 201 147 156 210 233 270 276 277 251 256 259 271 271 254 253 254 272 291 290 305 314 322 325 332 333 333 332 331 330 330 329 328 327 324 320 321
131 222 229 252 267 221 261 255 196 206 220 213 270 250 273 276 270 282 287 286 246 246 254 257 273 285 296 309 315 324 329 332 332 331 331 331 329 328 328 327 327 323 320 321
46 283 43 286 276 275 272 261 226 235 251 251 261 277 267 274 277 269 263 254 252 253 264 256 283 288 299 310 320 327 332 331 331 331 331 330 328 330 330 328 327 325 322 323
150 142 69 264 345 324 286 253 188 205 215 179 208 247 336 274 228 254 269 259 258 272 241 260 290 286 298 315 324 331 331 330 331 331 333 332 332 332 332 331 330 328 325 326
140 109 140 270 349 346 239 233 202 207 250 209 259 269 271 282 265 275 275 273 279 250 235 264 280 280 305 321 328 330 330 333 334 335 335 336 335 335 335 334 333 331 329 331
89 124 278 257 206 295 281 212 184 183 274 231 235 259 270 274 332 274 273 275 250 224 218 240 258 292 317 326 329 332 335 339 340 340 341 341 339 338 336 337 336 337 338 339
69 61 95 17 256 279 227 174 149 153 285 227 207 239 193 121 279 300 251 233 205 200 178 241 270 306 318 326 335 340 345 346 346 346 344 343 342 340 340 339 340 344 341 340
158 172 219 242 259 275 265 161 129 92 297 196 218 210 180 198 245 269 218 203 193 171 196 227 268 307 325 337 343 348 351 352 351 348 347 348 347 345 343 344 344 344 346 348
170 169 202 192 217 279 161 137 190 271 296 286 272 268 241 261 253 250 215 198 184 171 197 206 254 303 333 346 352 355 354 353 352 351 351 350 351 352 349 346 347 349 352 350
227 205 195 195 215 240 205 251 273 281 285 292 289 297 284 262 238 228 205 192 183 177 200 210 245 310 344 352 357 358 355 355 355 354 354 353 354 356 356 349 352 352 353 355
245 224 231 308 242 256 267 272 278 286 283 291 289 294 284 240 246 214 199 189 176 191 196 203 216 325 356 1 2 1 358 357 357 357 357 357 357 356 359 357 357 356 355 356
199 158 224 250 264 276 272 268 281 291 287 294 288 273 260 241 230 206 194 187 181 191 191 191 183 56 18 14 8 4 3 1 1 0 360 360 359 357 357 7 3 0 357 348
192 228 225 250 259 267 288 303 302 295 298 296 270 267 242 244 219 199 191 186 187 185 184 178 164 113 43 25 15 9 6 3 2 1 2 1 358 359 0 2 7 14 9 359